GW5241 Weather Reports


time (UTC)temp
C
wind
direction
speed
KPH
gust
KPH
rain 1hr
cm
rain 24hr
cm
rain mn
cm
humidity
%
barometer
mb
20260510120033 13 351 1.6 3.2 0.00 0.00 0.00 85 1017.6
20260510114531 -17 0.0 0.0 0.00 0.00 0.00 1017.1
20260510113030 -17 0.0 0.0 0.00 0.00 0.00 1016.9
20260510111532 -17 0.0 0.0 0.00 0.00 0.00 1016.5
20260510110033 -17 0.0 0.0 0.00 0.00 0.00 1016.0
20260510104532 -17 0.0 0.0 0.00 0.00 0.00 1015.9
20260510103034 -17 0.0 0.0 0.00 0.00 0.00 1016.1
20260510101532 -17 0.0 0.0 0.00 0.00 0.00 1016.0
20260510100032 -17 0.0 0.0 0.00 0.00 0.00 1016.0
20260510094536 -17 0.0 0.0 0.00 0.00 0.00 1016.0
20260510093006 -17 0.0 0.0 0.00 0.00 0.00 1015.8
20260510091505 -17 0.0 0.0 0.00 0.00 0.00 1015.3
20260510090006 -17 110 0.0 0.0 0.00 0.00 0.00 80 1015.2
20260510084508 15 110 0.0 3.2 0.00 0.00 0.00 79 1015.1
20260510083007 16 110 0.0 3.2 0.00 0.00 0.00 76 1015.1
20260510081508 16 209 1.6 3.2 0.00 0.00 0.00 77 1015.2
20260510080010 16 303 0.0 6.4 0.00 0.00 0.00 77 1015.1
20260510074506 15 316 1.6 16.1 0.00 0.00 0.00 79 1014.9
20260510073011 15 18 1.6 4.8 0.00 0.00 0.00 83 1014.4
20260510071509 15 114 0.0 6.4 0.00 0.03 0.00 81 1013.8
20260510070012 15 148 1.6 6.4 0.00 0.03 0.00 79 1014.0
20260510064531 15 168 0.0 4.8 0.00 0.03 0.00 81 1014.3
20260510063014 14 144 1.6 3.2 0.00 0.03 0.00 1014.6
20260510061512 15 106 0.0 0.0 0.00 0.03 0.00 1014.7
20260510060014 14 155 0.0 4.8 0.00 0.03 0.00 82 1015.0
20260510054514 14 138 1.6 6.4 0.00 0.03 0.00 83 1015.1
20260510053034 14 132 3.2 4.8 0.00 0.03 0.00 84 1015.1
20260510051516 14 103 0.0 0.0 0.00 0.03 0.00 84 1015.0
20260510050010 14 101 0.0 0.0 0.00 0.03 0.00 84 1015.0
20260510044518 15 109 1.6 4.8 0.00 0.03 0.03 84 1014.7
20260510043017 15 92 1.6 3.2 0.00 0.03 0.03 83 1014.7
20260510041517 15 172 1.6 3.2 0.00 0.03 0.03 82 1014.6
20260510040018 15 99 1.6 4.8 0.00 0.03 0.03 81 1014.9
20260510034514 16 136 1.6 4.8 0.00 0.03 0.03 81 1014.7
20260510033020 16 115 1.6 4.8 0.00 0.03 0.03 79 1014.3
20260510031528 16 121 0.0 4.8 0.00 0.03 0.03 78 1014.0
20260510030020 16 138 3.2 4.8 0.00 0.03 0.03 77 1013.9
20260510024521 17 80 0.0 4.8 0.00 0.03 0.03 75 1013.9
20260510023020 18 91 0.0 3.2 0.00 0.03 0.03 73 1013.4
20260510021528 18 111 1.6 4.8 0.00 0.03 0.03 72 1013.0
20260510020009 18 85 0.0 3.2 0.00 0.03 0.03 68 1012.6
20260510014513 19 85 0.0 3.2 0.00 0.03 0.03 67 1012.4
20260510013012 20 85 0.0 3.2 0.00 0.03 0.03 62 1012.2
20260510011509 21 111 0.0 3.2 0.00 0.03 0.03 56 1011.8
20260510010006 23 112 0.0 3.2 0.00 0.03 0.03 51 1011.6
20260510004506 25 112 0.0 3.2 0.00 0.03 0.03 49 1011.4
20260510003014 26 112 0.0 3.2 0.00 0.03 0.03 44 1011.3
20260510001512 26 245 0.0 3.2 0.00 0.05 0.03 38 1011.4
20260510000019 26 329 0.0 6.4 0.00 0.05 0.03 35 1011.5
20260509234507 27 222 4.8 6.4 0.00 0.05 0.03 31 1011.5
20260509233019 27 218 6.4 11.3 0.00 0.05 0.03 30 1011.6
20260509231517 27 236 4.8 8.0 0.00 0.05 0.03 31 1011.5
20260509230018 26 315 3.2 9.7 0.00 0.05 0.03 31 1011.6
20260509224505 27 168 3.2 9.7 0.00 0.05 0.03 30 1011.5
20260509223010 27 271 3.2 8.0 0.00 0.05 0.03 31 1011.6
20260509221517 27 255 3.2 11.3 0.00 0.05 0.03 30 1011.6
20260509220016 27 301 4.8 12.9 0.00 0.05 0.03 29 1011.7
20260509214517 28 214 9.7 16.1 0.00 0.05 0.03 28 1011.7
20260509213012 28 229 4.8 11.3 0.00 0.05 0.03 27 1011.8
20260509211511 28 309 6.4 11.3 0.00 0.05 0.03 28 1011.9
20260509210020 27 240 0.0 11.3 0.00 0.05 0.03 28 1012.1
20260509204525 27 284 9.7 14.5 0.00 0.05 0.03 29 1012.3
20260509203030 28 328 4.8 12.9 0.00 0.05 0.03 29 1012.4
20260509201514 28 325 1.6 12.9 0.00 0.05 0.03 28 1012.4
20260509200020 27 4 0.0 12.9 0.00 0.05 0.03 29 1012.5
20260509194534 28 290 4.8 9.7 0.00 0.05 0.03 31 1012.4
20260509193025 27 193 6.4 11.3 0.00 0.05 0.03 32 1012.5
20260509191527 27 172 8.0 17.7 0.00 0.05 0.03 32 1012.8
20260509190018 27 313 4.8 16.1 0.00 0.05 0.03 32 1012.8
20260509184521 26 330 6.4 12.9 0.00 0.05 0.03 37 1013.1
20260509183024 26 304 3.2 19.3 0.00 0.05 0.03 34 1013.0
20260509181525 26 305 6.4 17.7 0.00 0.05 0.03 40 1013.1
20260509180018 26 214 6.4 14.5 0.00 0.05 0.03 39 1013.2
20260509174537 26 309 4.8 11.3 0.00 0.05 0.03 43 1013.3
20260509173024 25 152 3.2 11.3 0.00 0.05 0.03 47 1013.4
20260509171537 25 360 6.4 12.9 0.00 0.05 0.03 49 1013.5
20260509170030 25 326 4.8 12.9 0.00 0.05 0.03 53 1013.5
20260509164527 24 305 4.8 12.9 0.00 0.05 0.03 53 1013.5
20260509163034 23 160 1.6 11.3 0.00 0.05 0.03 55 1013.4
20260509161532 23 359 0.0 4.8 0.00 0.05 0.03 56 1013.3
20260509160026 22 222 1.6 9.7 0.00 0.05 0.03 60 1013.4
20260509154528 22 256 1.6 8.0 0.00 0.05 0.03 62 1013.2
20260509153041 22 307 4.8 8.0 0.00 0.05 0.03 64 1013.2
20260509151525 21 301 3.2 8.0 0.00 0.05 0.03 69 1013.4
20260509150038 20 225 4.8 8.0 0.00 0.05 0.03 76 1013.3
20260509144526 18 238 6.4 11.3 0.00 0.05 0.03 81 1013.3
20260509143026 18 209 4.8 9.7 0.00 0.05 0.03 80 1013.3
20260509141526 18 210 3.2 9.7 0.00 0.05 0.03 83 1013.3
20260509140009 18 257 3.2 8.0 0.00 0.05 0.03 81 1013.1
20260509134513 17 80 0.0 3.2 0.00 0.05 0.03 87 1012.8
20260509133018 15 131 3.2 4.8 0.00 0.05 0.03 88 1012.8
20260509131506 13 124 1.6 3.2 0.00 0.05 0.03 92 1012.8
20260509130008 12 115 1.6 3.2 0.00 0.05 0.03 93 1012.8
20260509124511 11 112 0.0 3.2 0.00 0.05 0.03 95 1012.8
20260509123017 10 122 0.0 3.2 0.00 0.05 0.03 95 1012.7
20260509121524 10 101 0.0 3.2 0.00 0.05 0.03 94 1012.6